Powrót do katalogu

STARLINK-34624

AktywnyŁącznośćVLEO
NORAD 64805·PAYLOAD·🇺🇸 United States

Wystrzelony Jul 16, 2025 z Vandenberg Space Force Base

Loading…

Następne Przeloty (najbliższe 24 godziny)

TLE

ŚwieżeSource: CelesTrak SupGP

Epoka: Sep 15, 2026, 03:30 UTC

1 64805C 25150R   26258.14631944  .00058981  00000+0  49427-2 0  2587
2 64805  70.0031  16.8764 0003113 267.8060  62.3443 14.98301913    17

Śledź STARLINK-34624 w czasie rzeczywistym z AllMySat

Download on the App Store